SWA1558 KDAL-KLGB

Flight info

Callsign SWA1558
Flight time N/A
Altitude 34000
Route KKITY5 BRHMA CNX SJN HIPPI HIMDU DSNEE6
Aircraft B738/M-SADE2E3GIJ4RWZ/LB1D1

Departure

Time N/A
Airport Dallas Love Field (KDAL)

Arrival

Time 2026-04-28 20:41
Airport Long Beach International Airport (KLGB)
Time Latitude Longitude Altitude Speed Heading
2026-04-28 18:00 33.30164 -100.04088 33995 ft 380 kts 281°
2026-04-28 18:00 33.30845 -100.07130 33997 ft 379 kts 281°
2026-04-28 18:01 33.32206 -100.13226 34007 ft 379 kts 281°
2026-04-28 18:01 33.33563 -100.19319 34006 ft 379 kts 281°
2026-04-28 18:02 33.34907 -100.25370 34011 ft 379 kts 281°
2026-04-28 18:02 33.36260 -100.31479 34012 ft 379 kts 281°
2026-04-28 18:03 33.37610 -100.37577 34020 ft 379 kts 281°
2026-04-28 18:03 33.38955 -100.43680 34017 ft 379 kts 281°
2026-04-28 18:04 33.40288 -100.49741 34020 ft 379 kts 281°
2026-04-28 18:04 33.41629 -100.55849 34027 ft 379 kts 281°
2026-04-28 18:05 33.42964 -100.61952 34033 ft 380 kts 281°
2026-04-28 18:05 33.44299 -100.68067 34037 ft 380 kts 281°
2026-04-28 18:06 33.45621 -100.74142 34037 ft 379 kts 281°
2026-04-28 18:06 33.46949 -100.80253 34033 ft 379 kts 281°
2026-04-28 18:07 33.48273 -100.86363 34041 ft 379 kts 280°
2026-04-28 18:07 33.49592 -100.92473 34036 ft 379 kts 280°
2026-04-28 18:08 33.50902 -100.98556 34039 ft 380 kts 280°
2026-04-28 18:08 33.52219 -101.04676 34052 ft 379 kts 280°
2026-04-28 18:09 33.53473 -101.10812 34047 ft 379 kts 280°
2026-04-28 18:09 33.54680 -101.16884 34045 ft 376 kts 280°
2026-04-28 18:10 33.55914 -101.22972 34043 ft 376 kts 280°
2026-04-28 18:10 33.57143 -101.29065 34041 ft 375 kts 280°
2026-04-28 18:11 33.58360 -101.35141 34042 ft 375 kts 280°
2026-04-28 18:11 33.59566 -101.41179 34049 ft 375 kts 280°
2026-04-28 18:12 33.60778 -101.47259 34049 ft 374 kts 280°
2026-04-28 18:12 33.61988 -101.53331 34050 ft 374 kts 280°
2026-04-28 18:13 33.63194 -101.59408 34051 ft 375 kts 279°
2026-04-28 18:13 33.64397 -101.65492 34050 ft 374 kts 279°
2026-04-28 18:14 33.65587 -101.71520 34049 ft 373 kts 279°
2026-04-28 18:14 33.66778 -101.77576 34049 ft 373 kts 279°
2026-04-28 18:15 33.67970 -101.83643 34050 ft 374 kts 279°
2026-04-28 18:15 33.69159 -101.89720 34054 ft 374 kts 279°
2026-04-28 18:16 33.70336 -101.95751 34054 ft 373 kts 279°
2026-04-28 18:16 33.71520 -102.01816 34049 ft 373 kts 279°
2026-04-28 18:17 33.72694 -102.07883 34061 ft 373 kts 279°
2026-04-28 18:17 33.73866 -102.13952 34056 ft 373 kts 279°
2026-04-28 18:18 33.75038 -102.20018 34070 ft 372 kts 279°
2026-04-28 18:18 33.76011 -102.25063 34071 ft 373 kts 279°
2026-04-28 18:19 33.77364 -102.32123 34068 ft 373 kts 279°
2026-04-28 18:19 33.78530 -102.38202 34068 ft 373 kts 279°
2026-04-28 18:20 33.79689 -102.44273 34076 ft 373 kts 279°
2026-04-28 18:20 33.80838 -102.50313 34086 ft 373 kts 279°
2026-04-28 18:21 33.81988 -102.56388 34075 ft 373 kts 279°
2026-04-28 18:21 33.83136 -102.62458 34083 ft 373 kts 279°
2026-04-28 18:22 33.84285 -102.68524 34076 ft 371 kts 279°
2026-04-28 18:22 33.85417 -102.74537 34078 ft 371 kts 279°
2026-04-28 18:23 33.86551 -102.80605 34081 ft 372 kts 279°
2026-04-28 18:23 33.87686 -102.86672 34084 ft 371 kts 279°
2026-04-28 18:24 33.88625 -102.91706 34093 ft 372 kts 279°
2026-04-28 18:24 33.89948 -102.98809 34087 ft 372 kts 279°
2026-04-28 18:25 33.91068 -103.04836 34087 ft 372 kts 279°
2026-04-28 18:26 33.92748 -103.13946 34096 ft 371 kts 279°
2026-04-28 18:26 33.93870 -103.20023 34084 ft 372 kts 278°
2026-04-28 18:27 33.94976 -103.26063 34082 ft 372 kts 279°
2026-04-28 18:27 33.96089 -103.32162 34092 ft 373 kts 278°
2026-04-28 18:28 33.97208 -103.38274 34075 ft 374 kts 279°
2026-04-28 18:28 33.98318 -103.44370 34077 ft 372 kts 279°
2026-04-28 18:29 33.99416 -103.50416 34073 ft 372 kts 278°
2026-04-28 18:29 34.00518 -103.56519 34083 ft 373 kts 278°
2026-04-28 18:30 34.01621 -103.62637 34076 ft 374 kts 278°
2026-04-28 18:30 34.02715 -103.68727 34081 ft 374 kts 278°
2026-04-28 18:31 34.03813 -103.74854 34078 ft 374 kts 278°
2026-04-28 18:31 34.04912 -103.80987 34082 ft 374 kts 278°
2026-04-28 18:32 34.05999 -103.87106 34085 ft 373 kts 278°
2026-04-28 18:32 34.07083 -103.93189 34094 ft 374 kts 278°
2026-04-28 18:33 34.08169 -103.99329 34103 ft 374 kts 278°
2026-04-28 18:33 34.09251 -104.05466 34090 ft 373 kts 278°
2026-04-28 18:34 34.10329 -104.11584 34087 ft 372 kts 278°
2026-04-28 18:34 34.11395 -104.17675 34084 ft 375 kts 278°
2026-04-28 18:35 34.12472 -104.23825 34082 ft 374 kts 278°
2026-04-28 18:35 34.13540 -104.29953 34098 ft 373 kts 278°
2026-04-28 18:36 34.14604 -104.36082 34082 ft 373 kts 278°
2026-04-28 18:36 34.15663 -104.42175 34091 ft 373 kts 278°
2026-04-28 18:37 34.16722 -104.48326 34096 ft 374 kts 278°
2026-04-28 18:37 34.17784 -104.54467 34112 ft 373 kts 278°
2026-04-28 18:38 34.18835 -104.60598 34109 ft 372 kts 278°
2026-04-28 18:38 34.19873 -104.66667 34121 ft 371 kts 278°
2026-04-28 18:39 34.20913 -104.72757 34141 ft 370 kts 278°
2026-04-28 18:39 34.21949 -104.78856 34144 ft 371 kts 277°
2026-04-28 18:40 34.22984 -104.84961 34149 ft 371 kts 278°
2026-04-28 18:40 34.24009 -104.91023 34145 ft 371 kts 278°
2026-04-28 18:41 34.25034 -104.97114 34152 ft 369 kts 278°
2026-04-28 18:41 34.26055 -105.03197 34154 ft 369 kts 278°
2026-04-28 18:42 34.27073 -105.09278 34153 ft 370 kts 278°
2026-04-28 18:42 34.28083 -105.15339 34149 ft 370 kts 278°
2026-04-28 18:43 34.29099 -105.21432 34158 ft 370 kts 278°
2026-04-28 18:43 34.30112 -105.27537 34155 ft 370 kts 278°
2026-04-28 18:44 34.31117 -105.33637 34161 ft 369 kts 277°
2026-04-28 18:44 34.32611 -105.42723 34172 ft 368 kts 277°
2026-04-28 18:45 34.33608 -105.48803 34171 ft 369 kts 278°
2026-04-28 18:45 34.34604 -105.54881 34178 ft 368 kts 278°
2026-04-28 18:46 34.35594 -105.60976 34184 ft 369 kts 277°
2026-04-28 18:46 34.36572 -105.67031 34176 ft 368 kts 276°
2026-04-28 18:47 34.36869 -105.73179 34206 ft 365 kts 270°
2026-04-28 18:47 34.37052 -105.79333 34199 ft 366 kts 270°
2026-04-28 18:48 34.37231 -105.85499 34200 ft 367 kts 271°
2026-04-28 18:48 34.37406 -105.91668 34190 ft 366 kts 270°
2026-04-28 18:49 34.37553 -105.96774 34207 ft 366 kts 270°
2026-04-28 18:49 34.37756 -106.03931 34202 ft 366 kts 270°
2026-04-28 18:50 34.37925 -106.10097 34203 ft 366 kts 270°
2026-04-28 18:50 34.38089 -106.16262 34192 ft 366 kts 270°
2026-04-28 18:51 34.38249 -106.22383 34188 ft 366 kts 270°
2026-04-28 18:51 34.38412 -106.28546 34200 ft 366 kts 270°
2026-04-28 18:52 34.38565 -106.34703 34216 ft 365 kts 270°
2026-04-28 18:52 34.38719 -106.40847 34196 ft 365 kts 270°
2026-04-28 18:53 34.38866 -106.46943 34189 ft 365 kts 270°
2026-04-28 18:53 34.39012 -106.53090 34184 ft 366 kts 270°
2026-04-28 18:54 34.39157 -106.59247 34216 ft 365 kts 270°
2026-04-28 18:54 34.39299 -106.65402 34196 ft 365 kts 270°
2026-04-28 18:55 34.39414 -106.70506 34194 ft 365 kts 270°
2026-04-28 18:55 34.39569 -106.77638 34194 ft 364 kts 270°
2026-04-28 18:56 34.39702 -106.83750 34192 ft 363 kts 270°
2026-04-28 18:56 34.39826 -106.89880 34189 ft 365 kts 269°
2026-04-28 18:57 34.39950 -106.95988 34180 ft 364 kts 269°
2026-04-28 18:57 34.40076 -107.02100 34165 ft 362 kts 269°
2026-04-28 18:58 34.40194 -107.08198 34129 ft 362 kts 269°
2026-04-28 18:58 34.40304 -107.14304 34186 ft 364 kts 269°
2026-04-28 18:59 34.40418 -107.20393 34192 ft 364 kts 269°
2026-04-28 18:59 34.40530 -107.26515 34221 ft 363 kts 269°
2026-04-28 19:00 34.40634 -107.32607 34192 ft 363 kts 269°
2026-04-28 19:00 34.40740 -107.38731 34192 ft 364 kts 269°
2026-04-28 19:01 34.40838 -107.44843 34193 ft 362 kts 269°
2026-04-28 19:01 34.40934 -107.50901 34198 ft 362 kts 269°
2026-04-28 19:02 34.41027 -107.57000 34199 ft 362 kts 269°
2026-04-28 19:02 34.41118 -107.63095 34184 ft 362 kts 269°
2026-04-28 19:03 34.41206 -107.69180 34190 ft 361 kts 269°
2026-04-28 19:03 34.41291 -107.75231 34213 ft 362 kts 268°
2026-04-28 19:04 34.41374 -107.81328 34194 ft 362 kts 269°
2026-04-28 19:04 34.41450 -107.87422 34197 ft 362 kts 269°
2026-04-28 19:05 34.41527 -107.93502 34221 ft 361 kts 269°
2026-04-28 19:05 34.41599 -107.99540 34214 ft 362 kts 269°
2026-04-28 19:06 34.41658 -108.04649 34235 ft 363 kts 268°
2026-04-28 19:06 34.41736 -108.11742 34228 ft 362 kts 268°
2026-04-28 19:07 34.41797 -108.17840 34219 ft 362 kts 268°
2026-04-28 19:07 34.41859 -108.23923 34216 ft 362 kts 268°
2026-04-28 19:08 34.41919 -108.29980 34228 ft 362 kts 268°
2026-04-28 19:08 34.41972 -108.36077 34212 ft 362 kts 268°
2026-04-28 19:09 34.42022 -108.42180 34230 ft 362 kts 268°
2026-04-28 19:09 34.42071 -108.48270 34231 ft 361 kts 268°
2026-04-28 19:10 34.42118 -108.54317 34217 ft 362 kts 268°
2026-04-28 19:10 34.42160 -108.60401 34244 ft 361 kts 268°
2026-04-28 19:11 34.42199 -108.66507 34230 ft 363 kts 268°
2026-04-28 19:11 34.42238 -108.72623 34226 ft 363 kts 268°
2026-04-28 19:12 34.42270 -108.78682 34207 ft 362 kts 268°
2026-04-28 19:12 34.42299 -108.84775 34196 ft 362 kts 268°
2026-04-28 19:13 34.42328 -108.90877 34204 ft 363 kts 268°
2026-04-28 19:13 34.42351 -108.96988 34208 ft 363 kts 268°
2026-04-28 19:14 34.42373 -109.03113 34206 ft 364 kts 268°
2026-04-28 19:14 34.42391 -109.09191 34196 ft 364 kts 268°
2026-04-28 19:15 34.42410 -109.15316 34195 ft 363 kts 268°
2026-04-28 19:15 34.42631 -109.20414 34222 ft 366 kts 271°
2026-04-28 19:16 34.43079 -109.27596 34219 ft 366 kts 270°
2026-04-28 19:16 34.43341 -109.33713 34214 ft 366 kts 270°
2026-04-28 19:17 34.43626 -109.39866 34190 ft 366 kts 270°
2026-04-28 19:17 34.43921 -109.46003 34185 ft 365 kts 270°
2026-04-28 19:18 34.44204 -109.52166 34189 ft 367 kts 269°
2026-04-28 19:18 34.44487 -109.58339 34189 ft 366 kts 270°
2026-04-28 19:19 34.44767 -109.64458 34200 ft 367 kts 270°
2026-04-28 19:19 34.45041 -109.70628 34213 ft 367 kts 270°
2026-04-28 19:20 34.45314 -109.76797 34228 ft 366 kts 270°
2026-04-28 19:20 34.45584 -109.82968 34227 ft 368 kts 270°
2026-04-28 19:21 34.45850 -109.89121 34231 ft 368 kts 270°
2026-04-28 19:21 34.46115 -109.95307 34219 ft 368 kts 270°
2026-04-28 19:22 34.46331 -110.00440 34225 ft 367 kts 270°
2026-04-28 19:22 34.46633 -110.07664 34218 ft 367 kts 270°
2026-04-28 19:23 34.46893 -110.13869 34230 ft 369 kts 269°
2026-04-28 19:23 34.47140 -110.20036 34212 ft 368 kts 269°
2026-04-28 19:24 34.47391 -110.26229 34201 ft 368 kts 269°
2026-04-28 19:24 34.47632 -110.32423 34192 ft 368 kts 269°
2026-04-28 19:25 34.47878 -110.38614 34194 ft 368 kts 269°
2026-04-28 19:25 34.48118 -110.44774 34199 ft 368 kts 269°
2026-04-28 19:26 34.48351 -110.50971 34196 ft 369 kts 269°
2026-04-28 19:26 34.48589 -110.57192 34203 ft 370 kts 269°
2026-04-28 19:27 34.48820 -110.63415 34196 ft 369 kts 269°
2026-04-28 19:27 34.49046 -110.69586 34186 ft 369 kts 269°
2026-04-28 19:28 34.49272 -110.75810 34196 ft 370 kts 269°
2026-04-28 19:28 34.49494 -110.82048 34196 ft 370 kts 269°
2026-04-28 19:29 34.49676 -110.87230 34188 ft 371 kts 269°
2026-04-28 19:29 34.49928 -110.94500 34186 ft 372 kts 269°
2026-04-28 19:30 34.50142 -111.00751 34186 ft 372 kts 269°
2026-04-28 19:30 34.50353 -111.07016 34189 ft 372 kts 269°
2026-04-28 19:31 34.50560 -111.13293 34195 ft 373 kts 269°
2026-04-28 19:31 34.50765 -111.19576 34197 ft 373 kts 269°
2026-04-28 19:32 34.50966 -111.25830 34190 ft 374 kts 269°
2026-04-28 19:32 34.51164 -111.32139 34191 ft 375 kts 269°
2026-04-28 19:33 34.51359 -111.38451 34186 ft 375 kts 269°
2026-04-28 19:33 34.51555 -111.44776 34190 ft 376 kts 269°
2026-04-28 19:34 34.51744 -111.51072 34210 ft 376 kts 269°
2026-04-28 19:34 34.51930 -111.57423 34199 ft 378 kts 268°
2026-04-28 19:35 34.52114 -111.63792 34186 ft 378 kts 269°
2026-04-28 19:35 34.52295 -111.70168 34205 ft 379 kts 268°
2026-04-28 19:36 34.52475 -111.76553 34205 ft 379 kts 268°
2026-04-28 19:36 34.52650 -111.82891 34194 ft 378 kts 268°
2026-04-28 19:37 34.52792 -111.88187 34171 ft 379 kts 268°
2026-04-28 19:37 34.52989 -111.95671 34174 ft 381 kts 268°
2026-04-28 19:38 34.53156 -112.02093 34164 ft 380 kts 268°
2026-04-28 19:38 34.53317 -112.08451 34159 ft 380 kts 268°
2026-04-28 19:39 34.53476 -112.14855 34161 ft 380 kts 268°
2026-04-28 19:39 34.53631 -112.21267 34173 ft 380 kts 268°
2026-04-28 19:40 34.53784 -112.27680 34172 ft 380 kts 268°
2026-04-28 19:40 34.53932 -112.34030 34177 ft 379 kts 268°
2026-04-28 19:41 34.54077 -112.40422 34182 ft 379 kts 268°
2026-04-28 19:41 34.54218 -112.46810 34187 ft 379 kts 268°
2026-04-28 19:42 34.54357 -112.53196 34178 ft 378 kts 268°
2026-04-28 19:42 34.54470 -112.58498 34188 ft 378 kts 268°
2026-04-28 19:43 34.54623 -112.65922 34200 ft 379 kts 268°
2026-04-28 19:43 34.54752 -112.72312 34188 ft 379 kts 268°
2026-04-28 19:44 34.54876 -112.78687 34179 ft 378 kts 268°
2026-04-28 19:44 34.54998 -112.85025 34185 ft 378 kts 268°
2026-04-28 19:45 34.55117 -112.91393 34186 ft 378 kts 268°
2026-04-28 19:45 34.55232 -112.97772 34182 ft 379 kts 267°
2026-04-28 19:46 34.55344 -113.04165 34188 ft 379 kts 267°
2026-04-28 19:46 34.55453 -113.10556 34169 ft 379 kts 267°
2026-04-28 19:47 34.55557 -113.16899 34170 ft 378 kts 267°
2026-04-28 19:47 34.55659 -113.23274 34175 ft 378 kts 267°
2026-04-28 19:48 34.55756 -113.29652 34177 ft 379 kts 267°
2026-04-28 19:48 34.55853 -113.36075 34160 ft 381 kts 267°
2026-04-28 19:49 34.55946 -113.42498 34162 ft 381 kts 267°
2026-04-28 19:49 34.56034 -113.48881 34139 ft 381 kts 267°
2026-04-28 19:50 34.56160 -113.58501 34147 ft 381 kts 267°
2026-04-28 19:51 34.55643 -113.64839 34125 ft 377 kts 251°
2026-04-28 19:51 34.53435 -113.70555 34124 ft 378 kts 244°
2026-04-28 19:52 34.50995 -113.76192 34102 ft 378 kts 243°
2026-04-28 19:52 34.48566 -113.81851 34109 ft 378 kts 244°
2026-04-28 19:53 34.46144 -113.87523 34102 ft 379 kts 244°
2026-04-28 19:53 34.43720 -113.93160 34092 ft 380 kts 244°
2026-04-28 19:54 34.41278 -113.98830 34097 ft 379 kts 244°
2026-04-28 19:54 34.39430 -114.04782 34091 ft 379 kts 253°
2026-04-28 19:55 34.38079 -114.10963 34098 ft 380 kts 254°
2026-04-28 19:55 34.36752 -114.17109 34099 ft 380 kts 253°
2026-04-28 19:56 34.35396 -114.23277 34080 ft 379 kts 253°
2026-04-28 19:56 34.34040 -114.29436 34058 ft 379 kts 254°
2026-04-28 19:57 34.32693 -114.35606 34066 ft 379 kts 254°
2026-04-28 19:57 34.31361 -114.41740 34082 ft 379 kts 254°
2026-04-28 19:58 34.30012 -114.47910 34086 ft 379 kts 254°
2026-04-28 19:58 34.28662 -114.54057 34082 ft 377 kts 254°
2026-04-28 19:59 34.27315 -114.60199 34091 ft 378 kts 253°
2026-04-28 19:59 34.25963 -114.66322 34084 ft 377 kts 253°
2026-04-28 20:00 34.24611 -114.72401 34068 ft 377 kts 253°
2026-04-28 20:00 34.23209 -114.78499 34082 ft 377 kts 253°
2026-04-28 20:01 34.21806 -114.84602 34105 ft 378 kts 253°
2026-04-28 20:01 34.20415 -114.90681 34113 ft 378 kts 253°
2026-04-28 20:02 34.19017 -114.96766 34119 ft 375 kts 253°
2026-04-28 20:02 34.17667 -115.02850 34117 ft 375 kts 253°
2026-04-28 20:03 34.16322 -115.08946 34109 ft 376 kts 253°
2026-04-28 20:03 34.14965 -115.15001 34102 ft 376 kts 253°
2026-04-28 20:04 34.13595 -115.21116 34119 ft 378 kts 253°
2026-04-28 20:04 34.12223 -115.27230 34123 ft 376 kts 253°
2026-04-28 20:05 34.10851 -115.33318 34116 ft 376 kts 253°
2026-04-28 20:05 34.09488 -115.39369 34108 ft 376 kts 253°
2026-04-28 20:06 34.08111 -115.45452 34116 ft 376 kts 253°
2026-04-28 20:06 34.06729 -115.51546 34134 ft 377 kts 253°
2026-04-28 20:07 34.05363 -115.57655 34116 ft 378 kts 256°
2026-04-28 20:07 34.04468 -115.63866 34133 ft 379 kts 257°
2026-04-28 20:08 34.03597 -115.70155 33425 ft 381 kts 257°
2026-04-28 20:08 34.03160 -115.73302 32851 ft 380 kts 257°
2026-04-28 20:08 34.02721 -115.76430 32289 ft 377 kts 257°
2026-04-28 20:08 34.02283 -115.79537 31712 ft 375 kts 257°
2026-04-28 20:09 34.01844 -115.82643 31183 ft 382 kts 257°
2026-04-28 20:09 34.01393 -115.85820 30640 ft 384 kts 257°
2026-04-28 20:09 34.00945 -115.89002 30082 ft 387 kts 257°
2026-04-28 20:09 34.00499 -115.92163 29524 ft 389 kts 257°
2026-04-28 20:10 34.00039 -115.95404 28949 ft 393 kts 258°
2026-04-28 20:10 33.99582 -115.98627 28391 ft 389 kts 257°
2026-04-28 20:10 33.99116 -116.01894 27831 ft 401 kts 258°
2026-04-28 20:10 33.98645 -116.05202 27243 ft 403 kts 258°
2026-04-28 20:11 33.98161 -116.08579 26641 ft 411 kts 258°
2026-04-28 20:11 33.97683 -116.11923 26392 ft 397 kts 258°
2026-04-28 20:11 33.97225 -116.15137 26253 ft 382 kts 257°
2026-04-28 20:11 33.96786 -116.18198 26084 ft 369 kts 258°
2026-04-28 20:12 33.96355 -116.21197 25879 ft 358 kts 257°
2026-04-28 20:12 33.95967 -116.24149 25399 ft 356 kts 258°
2026-04-28 20:12 33.95616 -116.27096 24955 ft 354 kts 259°
2026-04-28 20:12 33.95391 -116.29038 24637 ft 353 kts 259°
2026-04-28 20:13 33.94923 -116.32931 24029 ft 350 kts 259°
2026-04-28 20:13 33.94563 -116.35817 23607 ft 348 kts 259°
2026-04-28 20:13 33.94203 -116.38686 23169 ft 346 kts 259°
2026-04-28 20:13 33.93854 -116.41503 22725 ft 344 kts 259°
2026-04-28 20:14 33.93505 -116.44342 22290 ft 342 kts 259°
2026-04-28 20:14 33.93156 -116.47165 21847 ft 340 kts 259°
2026-04-28 20:14 33.92808 -116.49970 21424 ft 338 kts 259°
2026-04-28 20:14 33.92461 -116.52754 20993 ft 335 kts 259°
2026-04-28 20:15 33.92115 -116.55519 20578 ft 333 kts 259°
2026-04-28 20:15 33.91765 -116.58262 20156 ft 330 kts 259°
2026-04-28 20:15 33.91413 -116.60977 19747 ft 328 kts 259°
2026-04-28 20:15 33.91062 -116.63675 19323 ft 325 kts 259°
2026-04-28 20:16 33.90720 -116.66315 18935 ft 322 kts 259°
2026-04-28 20:16 33.90376 -116.68968 18529 ft 319 kts 259°
2026-04-28 20:16 33.90033 -116.71605 18150 ft 318 kts 259°
2026-04-28 20:16 33.89692 -116.74227 17751 ft 316 kts 259°
2026-04-28 20:17 33.89358 -116.76836 17331 ft 314 kts 259°
2026-04-28 20:17 33.89065 -116.79438 16894 ft 314 kts 261°
2026-04-28 20:17 33.88799 -116.82050 16434 ft 314 kts 261°
2026-04-28 20:17 33.88536 -116.84615 16027 ft 312 kts 261°
2026-04-28 20:18 33.88259 -116.87206 15638 ft 313 kts 261°
2026-04-28 20:18 33.88065 -116.88961 15365 ft 313 kts 260°
2026-04-28 20:18 33.87680 -116.92403 14883 ft 313 kts 261°
2026-04-28 20:18 33.87391 -116.94999 14483 ft 313 kts 261°
2026-04-28 20:19 33.87107 -116.97587 14078 ft 312 kts 261°
2026-04-28 20:19 33.86823 -117.00182 13534 ft 316 kts 261°
2026-04-28 20:19 33.86533 -117.02812 12924 ft 319 kts 261°
2026-04-28 20:19 33.86239 -117.05468 12293 ft 322 kts 261°
2026-04-28 20:20 33.85941 -117.08145 11653 ft 322 kts 261°
2026-04-28 20:20 33.85651 -117.10753 11040 ft 316 kts 261°
2026-04-28 20:20 33.85357 -117.13379 10445 ft 318 kts 261°
2026-04-28 20:20 33.85066 -117.15984 10297 ft 306 kts 261°
2026-04-28 20:21 33.84789 -117.18475 10149 ft 295 kts 261°
2026-04-28 20:21 33.84522 -117.20864 10066 ft 284 kts 261°
2026-04-28 20:21 33.84262 -117.23182 9911 ft 278 kts 261°
2026-04-28 20:21 33.84002 -117.25487 9676 ft 277 kts 261°
2026-04-28 20:22 33.83742 -117.27784 9454 ft 277 kts 261°
2026-04-28 20:22 33.83487 -117.30049 9227 ft 277 kts 261°
2026-04-28 20:22 33.83225 -117.32349 9021 ft 278 kts 261°
2026-04-28 20:22 33.82964 -117.34653 8791 ft 278 kts 261°
2026-04-28 20:23 33.82701 -117.36955 8564 ft 277 kts 261°
2026-04-28 20:23 33.82440 -117.39247 8355 ft 276 kts 261°
2026-04-28 20:23 33.82182 -117.41526 8158 ft 275 kts 262°
2026-04-28 20:23 33.82012 -117.43023 8093 ft 269 kts 261°
2026-04-28 20:24 33.81464 -117.45860 7966 ft 257 kts 250°
2026-04-28 20:24 33.80865 -117.47871 7867 ft 254 kts 249°
2026-04-28 20:24 33.80262 -117.49855 7783 ft 251 kts 249°
2026-04-28 20:24 33.79659 -117.51823 7709 ft 250 kts 249°
2026-04-28 20:25 33.79056 -117.53789 7653 ft 251 kts 248°
2026-04-28 20:25 33.78452 -117.55756 7555 ft 251 kts 249°
2026-04-28 20:25 33.77851 -117.57721 7485 ft 250 kts 249°
2026-04-28 20:25 33.77253 -117.59682 7379 ft 248 kts 249°
2026-04-28 20:26 33.76661 -117.61624 7267 ft 247 kts 249°
2026-04-28 20:26 33.76078 -117.63539 7128 ft 249 kts 249°
2026-04-28 20:26 33.75486 -117.65513 6870 ft 251 kts 249°
2026-04-28 20:26 33.74900 -117.67483 6598 ft 249 kts 250°
2026-04-28 20:27 33.74323 -117.69425 6298 ft 245 kts 250°
2026-04-28 20:27 33.73759 -117.71341 6043 ft 242 kts 250°
2026-04-28 20:27 33.73200 -117.73231 5797 ft 240 kts 250°
2026-04-28 20:27 33.72641 -117.75115 5556 ft 239 kts 250°
2026-04-28 20:28 33.72082 -117.76992 5297 ft 238 kts 250°
2026-04-28 20:28 33.71533 -117.78835 5043 ft 237 kts 249°
2026-04-28 20:28 33.70980 -117.80689 4817 ft 236 kts 250°
2026-04-28 20:28 33.70430 -117.82541 4566 ft 235 kts 250°
2026-04-28 20:29 33.69882 -117.84380 4320 ft 234 kts 250°
2026-04-28 20:29 33.69335 -117.86214 4092 ft 232 kts 250°
2026-04-28 20:29 33.68792 -117.88042 4045 ft 238 kts 250°
2026-04-28 20:29 33.68238 -117.89928 4006 ft 238 kts 250°
2026-04-28 20:30 33.67698 -117.91789 3987 ft 235 kts 251°
2026-04-28 20:30 33.67467 -117.93685 3992 ft 231 kts 269°
2026-04-28 20:30 33.67462 -117.95572 3917 ft 220 kts 270°
2026-04-28 20:30 33.67473 -117.97361 3854 ft 209 kts 270°
2026-04-28 20:31 33.67486 -117.99061 3808 ft 195 kts 270°
2026-04-28 20:31 33.67496 -118.00588 3741 ft 170 kts 270°
2026-04-28 20:31 33.67502 -118.01911 3736 ft 150 kts 270°
2026-04-28 20:31 33.67505 -118.03124 3804 ft 143 kts 269°
2026-04-28 20:32 33.67509 -118.04377 3790 ft 158 kts 270°
2026-04-28 20:32 33.67622 -118.05688 3730 ft 159 kts 283°
2026-04-28 20:32 33.67883 -118.06983 3648 ft 160 kts 283°
2026-04-28 20:32 33.68138 -118.08271 3567 ft 155 kts 282°
2026-04-28 20:33 33.68378 -118.09496 3141 ft 152 kts 282°
2026-04-28 20:33 33.68615 -118.10719 3015 ft 147 kts 283°
2026-04-28 20:33 33.68860 -118.11961 2998 ft 155 kts 282°
2026-04-28 20:33 33.69103 -118.13200 2976 ft 154 kts 282°
2026-04-28 20:34 33.69350 -118.14458 2979 ft 153 kts 282°
2026-04-28 20:34 33.69594 -118.15706 2983 ft 155 kts 282°
2026-04-28 20:34 33.69836 -118.16939 2989 ft 153 kts 282°
2026-04-28 20:34 33.70083 -118.18198 2995 ft 155 kts 282°
2026-04-28 20:35 33.70328 -118.19452 3009 ft 154 kts 283°
2026-04-28 20:35 33.70595 -118.20707 2973 ft 156 kts 289°
2026-04-28 20:35 33.71151 -118.21798 2993 ft 158 kts 310°
2026-04-28 20:35 33.72028 -118.22582 2953 ft 157 kts 334°
2026-04-28 20:36 33.73054 -118.22955 3000 ft 167 kts 345°
2026-04-28 20:36 33.74136 -118.23286 3000 ft 155 kts 344°
2026-04-28 20:36 33.75186 -118.23608 3039 ft 163 kts 344°
2026-04-28 20:36 33.76257 -118.23941 3112 ft 159 kts 345°
2026-04-28 20:37 33.77322 -118.24284 3095 ft 158 kts 343°
2026-04-28 20:37 33.78372 -118.24641 3067 ft 155 kts 342°
2026-04-28 20:37 33.79426 -118.25002 3046 ft 157 kts 343°
2026-04-28 20:37 33.80476 -118.25360 3015 ft 157 kts 343°
2026-04-28 20:38 33.81545 -118.25719 3013 ft 166 kts 343°
2026-04-28 20:38 33.82662 -118.25893 2998 ft 157 kts
2026-04-28 20:38 33.83744 -118.25626 3014 ft 162 kts 19°
2026-04-28 20:38 33.84702 -118.24950 2990 ft 159 kts 39°
2026-04-28 20:39 33.85427 -118.23934 2994 ft 162 kts 58°
2026-04-28 20:39 33.85870 -118.22682 2766 ft 166 kts 76°
2026-04-28 20:39 33.85981 -118.21293 2252 ft 166 kts 97°
2026-04-28 20:39 33.85637 -118.20014 1771 ft 161 kts 119°
2026-04-28 20:40 33.84972 -118.18935 1250 ft 159 kts 136°
2026-04-28 20:40 33.84209 -118.18031 808 ft 153 kts 139°
2026-04-28 20:40 33.83461 -118.17153 419 ft 146 kts 137°
2026-04-28 20:40 33.82745 -118.16296 156 ft 146 kts 136°
2026-04-28 20:41 33.82083 -118.15499 56 ft 94 kts 135°
2026-04-28 20:41 33.81773 -118.15128 55 ft 53 kts 135°
2026-04-28 20:41 33.81576 -118.14892 50 ft 27 kts 134°
2026-04-28 20:41 33.81504 -118.14730 49 ft 18 kts 63°
2026-04-28 20:42 33.81613 -118.14700 53 ft 16 kts
2026-04-28 20:42 33.81721 -118.14698 52 ft 16 kts
2026-04-28 20:42 33.81828 -118.14697 49 ft 11 kts
2026-04-28 20:42 33.81904 -118.14694 54 ft 11 kts
2026-04-28 20:43 33.81941 -118.14653 52 ft 8 kts 89°
2026-04-28 20:43 33.81940 -118.14610 51 ft 1 kts 90°
2026-04-28 20:43 33.81940 -118.14609 51 ft 0 kts 90°